Showing default

METEOR 3M, 27001

Orbit data source: Space-Track

METEOR 3M, 27001 is a Commonwealth of Independent States-origin payload satellite in SSO that was launched on Mon, 10 Dec 2001 UTC via a ZENIT-2 launch vehicle from the Tyuratam Missile And Space Complex (TTMTR). Payload-class satellites include a variety of spacecraft equipped with specific instruments for various scientific and technological missions. These include communications satellites like Starlink; space stations such as the ISS; scientific satellites like the Hubble; Earth observation satellites from companies like Planet Labs, Umbra, and HawkEye 360; GPS; miniature CubeSats for education and research; and military/defense satellites.

Loading next visibility...
Identifier
27001, 2001-056A
Orbit
SSO
Country
Flag of CISCIS
Related business
Manufacturer
VNIIEM
Mission
Civil Weather
Bus & Motor
METEOR-3, Unknown motor
Mass
2,476 kg wet, ~2,300 kg dry
Launch date (UTC)
2001-12-10 (24 years ago)
Launch vehicle
ZENIT-2
Launch site
Tyuratam Missile And Space Complex (TTMTR)
Object type
Payload
Rocket body
Debris
Shape & HBR
Cyl + 2 Pan, 7.0 m
Radar Cross Section
26.744 m², Large (>1 m²)

Expand to show TLE details & history
Last TLE update: 8 hours ago

TLE from 8 hours ago
0 METEOR 3M
1 27001U 01056A   26150.50234947 -.00000015  00000-0  36408-4 0  9992
2 27001  99.8233 336.6217 0012907 241.5560 135.7787 13.69041929222464
Epoch: 2026-05-30T12:03Z
TLE epoch observation values (Epoch: 2026-05-30T12:03:22.994Z)
Latitude
17.16286°
Longitude
-95.29107°
Altitude
1,012.052 km
Speed
7.344 km/s
True Right ascension
22h 14m 17s
True Declination
17° 04' 10"
Sunlit
Object was in daylight at epoch
Visualization orbit readout
Latitude
Unknown
Longitude
Unknown
Altitude
Unknown
Speed
Unknown
Apparent Right ascension
Unknown
Apparent Declination
Unknown
Sunlit
N/A
Visualization observer readout
Local Sidereal Time
05:30:00
Azimuth
Unknown
Elevation
Unknown
Doppler factor
Unknown
Orbital elements
Apogee altitude
1,009.818 km
Perigee altitude
990.772 km
Semi-major axis
7,378.432 km
Eccentricity
0.00129
Inclination
99.8233°
RAAN
336.6217°
Arg. of periapsis
241.556°
True anomaly
135.88173°
Mean anomaly
135.7787°
Eccentric anomaly
135.83023°
Mean motion
3.4245 °/min
Orbital period
105.12 mins
BSTAR
0.000036408
Loading maneuver chart data...
Computing Atmospheric mass density...
Loading historical data...
Loading historical data...
Loading historical data...
Loading historical data...
Loading historical data...
Loading historical data...
Loading historical data...

Documentation

Showing up to 5 results
|